Orbital Elements at Epoch 2459000.5 (2020-May-31.0) TDB
Reference: JPL 18 (heliocentric ecliptic J2000)
Element | Value | Uncertainty (1-sigma) | Units |
e | .1384103892766749 | 3.6857e-08 | |
a | 2.611497954310754 | 1.6855e-08 | au |
q | 2.250039505859363 | 9.4043e-08 | au |
i | 3.837017414627435 | 3.8728e-06 | deg |
node | 113.2529325571331 | 8.1184e-05 | deg |
peri | 213.7154249045922 | 8.3733e-05 | deg |
M | 7.614603534614906 | 1.9765e-05 | deg |
tp | 2458967.895484039507 (2020-Apr-28.39548404) | 8.4677e-05 | TDB |
period | 1541.462492750925 4.22 | 1.4923e-05 4.086e-08 | d yr |
n | .2335444434703934 | 2.261e-09 | deg/d |
Q | 2.972956402762146 | 1.9188e-08 | au |
|
| | Orbit Determination Parameters
Additional Information
|